Location: Dodgeville, WI 53533, USA
(43.0344°N, 90.0900°W)
Time: 23:18:38
(UTC-06:00)

ISS - Pass Details

Date: 31 January 2021
Orbit: 417 x 422 km, 51.6° (Epoch: 05 March)

Event Time Altitude Azimuth Distance (km) Brightness Sun altitude
Rises 18:51:40 0° 305° (NW) 2,374 0.8 -18.4°
Reaches altitude 10° 18:53:53 10° 314° (NW) 1,508 -0.4 -18.8°
Enters shadow 18:56:40 36° 6° (N) 689 -2.8 -19.3°
